LNWLF11 KNZY-KMYF

Flight info

Callsign LNWLF11
Flight time 0h 17m
Altitude VFR
Route
Aircraft H60/M-DOV/C

Departure

Time 2026-04-23 04:19
Airport North Island Naval Air Station-Halsey Field (KNZY)

Arrival

Time 2026-04-23 04:36
Airport Montgomery-Gibbs Executive Airport (KMYF)
Time Latitude Longitude Altitude Speed Heading
2026-04-23 04:17 32.70072 -117.73226 1796 ft 147 kts 85°
2026-04-23 04:17 32.70142 -117.72007 1909 ft 147 kts 82°
2026-04-23 04:18 32.70209 -117.70796 1947 ft 147 kts 82°
2026-04-23 04:18 32.70301 -117.69585 1958 ft 146 kts 82°
2026-04-23 04:18 32.70398 -117.68413 1868 ft 142 kts 80°
2026-04-23 04:18 32.70494 -117.67251 1797 ft 140 kts 80°
2026-04-23 04:19 32.70583 -117.66100 1743 ft 140 kts 80°
2026-04-23 04:19 32.70677 -117.64943 1702 ft 143 kts 80°
2026-04-23 04:19 32.70782 -117.63766 1601 ft 143 kts 80°
2026-04-23 04:19 32.70874 -117.62625 1597 ft 136 kts 80°
2026-04-23 04:20 32.70954 -117.61503 1623 ft 137 kts 80°
2026-04-23 04:20 32.71051 -117.60359 1573 ft 141 kts 80°
2026-04-23 04:20 32.71153 -117.59192 1519 ft 140 kts 80°
2026-04-23 04:20 32.71247 -117.58041 1703 ft 141 kts 80°
2026-04-23 04:21 32.71339 -117.56855 1832 ft 149 kts 80°
2026-04-23 04:21 32.71444 -117.55584 1976 ft 158 kts 80°
2026-04-23 04:21 32.71569 -117.54276 2120 ft 160 kts 80°
2026-04-23 04:21 32.71692 -117.52976 2277 ft 158 kts 80°
2026-04-23 04:22 32.71793 -117.51666 2382 ft 159 kts 80°
2026-04-23 04:22 32.71881 -117.50350 2476 ft 160 kts 80°
2026-04-23 04:22 32.71973 -117.49045 2561 ft 161 kts 80°
2026-04-23 04:22 32.72070 -117.47711 2592 ft 164 kts 80°
2026-04-23 04:23 32.72194 -117.46355 2559 ft 165 kts 80°
2026-04-23 04:23 32.72329 -117.45031 2636 ft 157 kts 80°
2026-04-23 04:23 32.72480 -117.43784 2813 ft 150 kts 77°
2026-04-23 04:23 32.72642 -117.42568 2996 ft 148 kts 77°
2026-04-23 04:24 32.72813 -117.41357 3132 ft 150 kts 77°
2026-04-23 04:24 32.72974 -117.40137 3251 ft 150 kts 77°
2026-04-23 04:24 32.73127 -117.38911 3383 ft 150 kts 77°
2026-04-23 04:24 32.73285 -117.37674 3453 ft 154 kts 77°
2026-04-23 04:25 32.73460 -117.36418 3462 ft 151 kts 77°
2026-04-23 04:25 32.73608 -117.35208 3459 ft 144 kts 78°
2026-04-23 04:25 32.73733 -117.34043 3478 ft 140 kts 78°
2026-04-23 04:25 32.73857 -117.32896 3481 ft 140 kts 78°
2026-04-23 04:26 32.73986 -117.31759 3481 ft 139 kts 79°
2026-04-23 04:26 32.74120 -117.30621 3483 ft 139 kts 79°
2026-04-23 04:26 32.74251 -117.29481 3482 ft 140 kts 79°
2026-04-23 04:26 32.74395 -117.28336 3464 ft 139 kts 76°
2026-04-23 04:27 32.74587 -117.27249 3069 ft 135 kts 68°
2026-04-23 04:27 32.74909 -117.26210 2886 ft 135 kts 64°
2026-04-23 04:27 32.75264 -117.25206 2604 ft 128 kts 60°
2026-04-23 04:28 32.76001 -117.23423 2344 ft 114 kts 56°
2026-04-23 04:28 32.76365 -117.22587 2036 ft 112 kts 57°
2026-04-23 04:28 32.76721 -117.21790 1902 ft 107 kts 57°
2026-04-23 04:28 32.77079 -117.21015 1800 ft 106 kts 56°
2026-04-23 04:29 32.77424 -117.20250 1585 ft 105 kts 55°
2026-04-23 04:29 32.77791 -117.19508 1448 ft 107 kts 54°
2026-04-23 04:29 32.78186 -117.18711 1360 ft 110 kts 54°
2026-04-23 04:29 32.78530 -117.17992 1231 ft 94 kts 53°
2026-04-23 04:30 32.78878 -117.17296 1147 ft 99 kts 53°
2026-04-23 04:30 32.79256 -117.16649 1017 ft 91 kts 51°
2026-04-23 04:30 32.79590 -117.15988 1001 ft 98 kts 88°
2026-04-23 04:30 32.79665 -117.15193 943 ft 96 kts 120°
2026-04-23 04:31 32.79414 -117.14442 950 ft 99 kts 119°
2026-04-23 04:31 32.79140 -117.13669 1026 ft 103 kts 97°
2026-04-23 04:31 32.79066 -117.12857 1013 ft 96 kts 64°
2026-04-23 04:31 32.79257 -117.12131 1169 ft 89 kts 28°
2026-04-23 04:32 32.79693 -117.11631 1462 ft 89 kts
2026-04-23 04:32 32.80287 -117.11530 1358 ft 87 kts 317°
2026-04-23 04:32 32.80611 -117.11803 1145 ft 91 kts 293°
2026-04-23 04:32 32.80874 -117.12533 788 ft 102 kts 296°
2026-04-23 04:33 32.81153 -117.13312 539 ft 101 kts 307°
2026-04-23 04:33 32.81503 -117.14063 503 ft 105 kts 299°
2026-04-23 04:33 32.81789 -117.14804 638 ft 94 kts 299°
2026-04-23 04:33 32.81870 -117.15478 910 ft 76 kts 229°
2026-04-23 04:34 32.81472 -117.16104 1061 ft 67 kts 199°
2026-04-23 04:34 32.81185 -117.16211 1128 ft 64 kts 179°
2026-04-23 04:34 32.80781 -117.16007 1063 ft 68 kts 115°
2026-04-23 04:34 32.80503 -117.15429 964 ft 93 kts 117°
2026-04-23 04:35 32.80243 -117.14674 850 ft 103 kts 113°
2026-04-23 04:35 32.80000 -117.13882 815 ft 101 kts 109°
2026-04-23 04:35 32.79843 -117.13102 878 ft 91 kts 57°
2026-04-23 04:35 32.80006 -117.12488 794 ft 69 kts
2026-04-23 04:36 32.80424 -117.12402 778 ft 73 kts 327°
2026-04-23 04:36 32.80891 -117.12703 723 ft 74 kts 298°
2026-04-23 04:36 32.81144 -117.13190 579 ft 64 kts 299°
2026-04-23 04:36 32.81297 -117.13538 470 ft 29 kts 298°
2026-04-23 04:37 32.81358 -117.13692 485 ft 16 kts 298°
2026-04-23 04:37 32.81405 -117.13813 450 ft 15 kts 298°
2026-04-23 04:37 32.81435 -117.13886 425 ft 3 kts 297°
2026-04-23 04:37 32.81444 -117.13907 422 ft 4 kts 296°
2026-04-23 04:38 32.81459 -117.13970 425 ft 10 kts 271°
2026-04-23 04:38 32.81449 -117.14008 417 ft 2 kts 243°
2026-04-23 04:38 32.81446 -117.14016 423 ft 0 kts 243°
2026-04-23 04:39 32.81445 -117.14017 425 ft 1 kts 243°
2026-04-23 04:39 32.81444 -117.14021 417 ft 1 kts 243°
2026-04-23 04:39 32.81435 -117.14041 426 ft 6 kts 244°
2026-04-23 04:40 32.81411 -117.14077 425 ft 7 kts 202°
2026-04-23 04:40 32.81361 -117.14102 425 ft 6 kts 187°
2026-04-23 04:40 32.81353 -117.14080 423 ft 4 kts 18°
2026-04-23 04:40 32.81356 -117.14079 425 ft 0 kts 17°
2026-04-23 04:45 32.81375 -117.14087 424 ft 7 kts 329°
2026-04-23 04:45 32.81431 -117.14084 422 ft 6 kts 349°
2026-04-23 04:45 32.81459 -117.14139 426 ft 6 kts 295°
2026-04-23 04:45 32.81480 -117.14192 419 ft 7 kts 294°
2026-04-23 04:46 32.81499 -117.14241 422 ft 7 kts 295°
2026-04-23 04:46 32.81520 -117.14297 427 ft 8 kts 296°
2026-04-23 04:46 32.81546 -117.14361 422 ft 8 kts 295°
2026-04-23 04:46 32.81576 -117.14436 425 ft 9 kts 295°
2026-04-23 04:47 32.81602 -117.14503 424 ft 10 kts 294°
2026-04-23 04:47 32.81618 -117.14562 420 ft 6 kts 251°
2026-04-23 04:47 32.81577 -117.14595 423 ft 5 kts 211°
2026-04-23 04:47 32.81567 -117.14642 422 ft 11 kts 276°
2026-04-23 04:48 32.81577 -117.14723 418 ft 4 kts 279°
2026-04-23 04:48 32.81577 -117.14726 421 ft 0 kts 198°
2026-04-23 04:48 32.81569 -117.14727 442 ft 5 kts 198°
2026-04-23 04:49 32.81384 -117.14796 643 ft 71 kts 200°
2026-04-23 04:49 32.80685 -117.15091 926 ft 135 kts 205°
2026-04-23 04:49 32.79673 -117.15460 824 ft 163 kts 197°
2026-04-23 04:49 32.78563 -117.15822 962 ft 166 kts 197°
2026-04-23 04:50 32.77462 -117.16221 1190 ft 165 kts 202°
2026-04-23 04:50 32.76425 -117.16834 1287 ft 168 kts 214°
2026-04-23 04:50 32.75434 -117.17584 1265 ft 170 kts 219°
2026-04-23 04:50 32.74346 -117.18166 1229 ft 173 kts 206°
2026-04-23 04:51 32.73214 -117.18547 1284 ft 157 kts 200°
2026-04-23 04:51 32.72284 -117.18835 1298 ft 123 kts 202°
2026-04-23 04:51 32.71439 -117.19135 938 ft 131 kts 208°
2026-04-23 04:51 32.70706 -117.19721 574 ft 123 kts 233°
2026-04-23 04:52 32.70191 -117.20501 361 ft 103 kts 241°
2026-04-23 04:52 32.69967 -117.20882 206 ft 12 kts 234°
2026-04-23 04:52 32.69979 -117.20964 68 ft 13 kts 176°
2026-04-23 04:52 32.69944 -117.21020 36 ft 5 kts 130°
2026-04-23 04:53 32.69936 -117.21027 28 ft 1 kts 129°
2026-04-23 04:53 32.69928 -117.21009 26 ft 5 kts 128°
2026-04-23 04:53 32.69897 -117.20952 25 ft 11 kts 116°
2026-04-23 04:53 32.69882 -117.20918 27 ft 1 kts 123°
2026-04-23 04:54 32.69858 -117.20877 29 ft 7 kts 125°
2026-04-23 04:54 32.69830 -117.20824 29 ft 7 kts 94°
2026-04-23 04:54 32.69856 -117.20789 26 ft 8 kts 34°
2026-04-23 04:54 32.69900 -117.20755 29 ft 8 kts 32°
2026-04-23 04:55 32.69942 -117.20724 29 ft 4 kts 44°
2026-04-23 04:55 32.69941 -117.20699 25 ft 4 kts 121°
2026-04-23 04:55 32.69938 -117.20691 25 ft 0 kts 117°